Zurück zum Katalog

MEXSAT 3

AktivKommunikationGEO
NORAD 39035·PAYLOAD·🇲🇽 Mexico

Gestartet Dec 19, 2012 von Guiana Space Centre

Loading…

TLE

AktuellSource: Space-Track

Epoche: Sep 14, 2026, 13:15 UTC

1 39035U 12075B   26257.55243745 -.00000034  00000-0  00000-0 0  9990
2 39035   0.0194 148.8027 0001408  85.2847 203.5614  1.00272018  7945

Verfolge MEXSAT 3 in Echtzeit mit AllMySat

Download on the App Store